Location: Leiter
(44.7178°N, 106.2687°W)
Time: 13:49:47
(UTC+00:00)

CUBESAT XI-V - Pass Details

Date: 06 July 2022
Orbit: 668 x 690 km, 98.1° (Epoch: 18 August)

Event Time Altitude Azimuth Distance (km) Brightness Sun altitude
Exits shadow 09:14:02 31° 205° (SSW) 1,168 ? -16.9°
Maximum altitude 09:15:50 49° 260° (W) 870 ? -16.7°
Drops below altitude 10° 09:20:18 10° 336° (NNW) 2,106 ? -16.3°
Sets 09:22:36 0° 342° (NNW) 3,023 ? -16.1°
